Weather History for EGBB - November, 2011

Change the Weather History Date:

Monday, November 7, 2011

  Actual Average Record
Temperature  
Mean Temperature 42 °F -  
Max Temperature 50 °F 48 °F 55 °F (2003)
Min Temperature 33 °F 36 °F 33 °F (1996)
Degree Days  
Heating Degree Days 24    
Moisture  
Dew Point 44 °F    
Average Humidity 96    
Maximum Humidity 100    
Minimum Humidity 93    
Precipitation  
Precipitation 0.00 in 0.08 in - ()
Sea Level Pressure  
Sea Level Pressure 30.20 in    
Wind  
Wind Speed 6 mph ()    
Max Wind Speed 10 mph    
Max Gust Speed -    
Visibility 2.7 miles    
Events      
Averages and records for this station are not official NWS values.
T = Trace of Precipitation, MM = Missing Value Source: Averaged Metar Reports

Daily Weather History Graph

Daily Weather History Graph

Search for Another Location

Airport or City:

Trip Planner

Search our weather history database for the weather conditions in past years. The results will help you decide how hot, cold, wet, or windy it might be!

Date:

Astronomy

Nov. 07, 2011 Rise Set
Actual Time 7:13 AM GMT 4:27 PM GMT
Civil Twilight 6:36 AM GMT 5:04 PM GMT
Nautical Twilight 5:55 AM GMT 5:44 PM GMT
Astronomical Twilight 5:15 AM GMT 6:24 PM GMT
Moon 2:47 PM GMT (11/7) 3:43 AM GMT (11/7)
Length of Visible Light 10h 27m
Length of Day
9h 13m
Waxing Gibbous, 90% of the Moon is Illuminated
Nov 7
Waxing Gibbous
Nov 10
Full
Nov 18
Last Quarter
Nov 25
New
Dec 2
First Quarter

Hourly Weather History & Observations

Time (GMT) Temp. Windchill Dew Point Humidity Pressure Visibility Wind Dir Wind Speed Gust Speed Precip Events Conditions
12:20 AM 33.8 °F 29.6 °F 32.0 °F 93% 30.33 in 3.1 mi NW 4.6 mph - N/A   Mist
12:50 AM 35.6 °F 31.7 °F 33.8 °F 93% 30.33 in 3.7 mi NW 4.6 mph - N/A   Unknown
1:20 AM 33.8 °F 30.8 °F 33.8 °F 100% 30.33 in 3.1 mi North 3.5 mph - N/A   Mist
1:50 AM 33.8 °F 28.6 °F 33.8 °F 100% 30.30 in 3.1 mi NNW 5.8 mph - N/A   Unknown
2:20 AM 35.6 °F 31.7 °F 35.6 °F 100% 30.30 in 4.3 mi NNW 4.6 mph - N/A   Partly Cloudy
2:50 AM 33.8 °F 29.6 °F 33.8 °F 100% 30.30 in 3.7 mi NNW 4.6 mph - N/A   Mostly Cloudy
3:50 AM 39.2 °F 35.9 °F 37.4 °F 93% 30.30 in 6.2 mi North 4.6 mph - N/A   Mostly Cloudy
4:20 AM 39.2 °F 35.0 °F 37.4 °F 93% 30.30 in 6.2 mi North 5.8 mph - N/A   Overcast
4:50 AM 41.0 °F 35.8 °F 39.2 °F 93% 30.30 in 6.2 mi North 8.1 mph - N/A   Overcast
5:20 AM 41.0 °F 35.8 °F 39.2 °F 93% 30.30 in 6.2 mi North 8.1 mph - N/A   Overcast
5:50 AM 41.0 °F 35.8 °F 39.2 °F 93% 30.27 in 6.2 mi North 8.1 mph - N/A   Overcast
6:20 AM 42.8 °F 39.3 °F 41.0 °F 93% 30.27 in 6.2 mi North 5.8 mph - N/A   Overcast
6:50 AM 42.8 °F 38.0 °F 41.0 °F 93% 30.27 in 5.0 mi North 8.1 mph - N/A   Overcast
7:20 AM 42.8 °F 38.6 °F 41.0 °F 93% 30.27 in 5.0 mi North 6.9 mph - N/A   Overcast
7:50 AM 42.8 °F 38.6 °F 41.0 °F 93% 30.27 in 4.3 mi North 6.9 mph - N/A   Overcast
8:20 AM 44.6 °F 40.2 °F 42.8 °F 93% 30.27 in 4.3 mi North 8.1 mph - N/A   Overcast
8:50 AM 44.6 °F 39.2 °F 42.8 °F 93% 30.27 in 3.7 mi North 10.4 mph - N/A   Overcast
9:20 AM 44.6 °F 39.2 °F 42.8 °F 93% 30.27 in - North 10.4 mph - N/A   Overcast
9:50 AM 44.6 °F 39.7 °F 42.8 °F 93% 30.27 in 1.7 mi North 9.2 mph - N/A   Overcast
10:20 AM 44.6 °F 40.7 °F 44.6 °F 100% 30.27 in 1.7 mi North 6.9 mph - N/A   Overcast
10:50 AM 44.6 °F 40.2 °F 44.6 °F 100% 30.24 in 1.8 mi North 8.1 mph - N/A   Overcast
11:20 AM 46.4 °F 42.9 °F 44.6 °F 93% 30.24 in - North 6.9 mph - N/A   Overcast
11:50 AM 46.4 °F 41.9 °F 44.6 °F 93% 30.24 in 1.7 mi North 9.2 mph - N/A   Overcast
12:20 PM 46.4 °F 42.4 °F 44.6 °F 93% 30.21 in 1.6 mi North 8.1 mph - N/A   Overcast
12:50 PM 46.4 °F 42.4 °F 46.4 °F 100% 30.21 in 1.4 mi North 8.1 mph - N/A   Overcast
1:20 PM 46.4 °F 42.9 °F 46.4 °F 100% 30.18 in 1.2 mi North 6.9 mph - N/A   Overcast
1:50 PM 46.4 °F 42.9 °F 46.4 °F 100% 30.18 in 1.2 mi North 6.9 mph - N/A   Overcast
2:20 PM 48.2 °F - 48.2 °F 100% 30.18 in 1.2 mi NNE 10.4 mph - N/A   Overcast
2:50 PM 48.2 °F - 48.2 °F 100% 30.15 in 1.4 mi NNE 9.2 mph - N/A   Overcast
3:20 PM 48.2 °F - 48.2 °F 100% 30.15 in 1.1 mi NNE 9.2 mph - N/A   Overcast
3:50 PM 48.2 °F - 48.2 °F 100% 30.15 in 1.1 mi NNE 8.1 mph - N/A   Light Drizzle
4:20 PM 48.2 °F - 48.2 °F 100% 30.15 in 1.0 mi NNE 6.9 mph - N/A   Light Drizzle
4:50 PM 48.2 °F - 48.2 °F 100% 30.12 in 1.3 mi NNE 6.9 mph - N/A   Overcast
5:20 PM 48.2 °F - 48.2 °F 100% 30.12 in 1.4 mi NNE 6.9 mph - N/A   Overcast
5:50 PM 48.2 °F - 48.2 °F 100% 30.12 in 1.6 mi NNE 5.8 mph - N/A   Light Drizzle
6:20 PM 48.2 °F - 48.2 °F 100% 30.12 in 1.4 mi NNE 5.8 mph - N/A   Light Drizzle
6:50 PM 50.0 °F - 48.2 °F 94% 30.09 in 1.6 mi NNE 5.8 mph - N/A   Light Drizzle
7:20 PM 50.0 °F - 48.2 °F 94% 30.09 in 2.2 mi NE 6.9 mph - N/A   Mostly Cloudy
7:50 PM 50.0 °F - 48.2 °F 94% 30.09 in 2.5 mi NE 6.9 mph - N/A   Mostly Cloudy
8:20 PM 50.0 °F - 48.2 °F 94% 30.09 in 2.5 mi NNE 6.9 mph - N/A   Mostly Cloudy
8:50 PM 50.0 °F - 48.2 °F 94% 30.09 in 1.6 mi NNE 6.9 mph - N/A   Mostly Cloudy
9:20 PM 50.0 °F - 48.2 °F 94% 30.06 in 1.2 mi NE 6.9 mph - N/A   Mostly Cloudy
9:50 PM 50.0 °F - 48.2 °F 94% 30.06 in 1.7 mi NE 8.1 mph - N/A   Mostly Cloudy
10:20 PM 50.0 °F - 48.2 °F 94% 30.06 in 1.3 mi NE 8.1 mph - N/A   Mostly Cloudy
10:50 PM 50.0 °F - 48.2 °F 94% 30.06 in 1.2 mi NE 5.8 mph - N/A   Light Drizzle
11:20 PM 50.0 °F - 48.2 °F 94% 30.04 in 1.4 mi NE 5.8 mph - N/A   Light Drizzle
11:50 PM 50.0 °F - 48.2 °F 94% 30.04 in 1.2 mi NE 5.8 mph - N/A   Light Drizzle